Date String (YYYY-MM-DD hh:mm:ss) UTC,Instrument flags,Ambient pressure (hPa),Sample flow (lpm),Bypass flow (lpm),Sample temperature (°C),Ambient temperature (°C),ASC tube jacket temperature (°C),LED temperature (°C),Box temperature (°C),Sample RH (%),Span deviation,Mass concentration (μg/m³),Mass concentration (μg/m³),Mass concentration (μg/m³)
DateTimeUTC,F1_M11,P_M11,Q1_M11,Q2_M11,T1_M11,T2_M11,T3_M11,T4_M11,T5_M11,U1_M11,ZSPAN_M11,X0_M11,X2_M11,X1_M11
2022-04-18 09:00:00,,0834.0,5.00,0.00,25.0,24.0,00.0,33.9,26.8,08.7,0000.0,0007.90,0002.67,0001.18
2022-04-18 09:01:00,,0834.0,5.00,0.00,25.0,24.0,00.0,33.9,26.8,08.7,0000.0,0007.75,0002.60,0001.17
2022-04-18 09:02:00,,0834.0,5.00,0.00,25.0,24.0,00.0,33.9,26.8,08.7,0000.0,0007.96,0002.58,0001.17
2022-04-18 09:03:00,,0834.0,5.00,0.00,25.0,24.0,00.0,33.9,26.8,08.8,0000.0,0008.07,0002.63,0001.18
2022-04-18 09:04:00,,0834.0,5.00,0.00,25.0,24.0,00.0,33.9,26.8,08.9,0000.0,0008.19,0002.64,0001.19
2022-04-18 09:05:00,,0834.0,5.00,0.00,25.0,24.0,00.0,33.9,26.8,08.9,0000.0,0008.21,0002.58,0001.19
2022-04-18 09:06:00,,0834.0,5.00,0.00,25.0,24.0,00.0,33.9,26.8,08.9,0000.0,0008.22,0002.50,0001.19
2022-04-18 09:07:00,,0834.0,5.00,0.00,25.0,24.0,00.0,33.9,26.8,08.9,0000.0,0008.06,0002.44,0001.19
2022-04-18 09:08:00,,0834.0,5.00,0.00,25.0,24.0,00.0,33.9,26.7,08.9,0000.0,0008.11,0002.40,0001.19
2022-04-18 09:09:00,,0834.0,5.00,0.00,25.0,24.0,00.0,33.9,26.8,08.9,0000.0,0008.44,0002.45,0001.19
2022-04-18 09:10:00,,0834.0,5.00,0.00,25.0,24.0,00.0,33.9,26.8,08.9,0000.0,0008.62,0002.47,0001.20
2022-04-18 09:11:00,,0833.8,5.00,0.00,24.9,24.0,00.0,33.9,26.7,08.9,0000.0,0008.66,0002.44,0001.20
2022-04-18 09:12:00,,0833.8,5.00,0.00,24.9,23.9,00.0,33.9,26.7,08.9,0000.0,0008.68,0002.41,0001.20
2022-04-18 09:13:00,,0833.8,5.00,0.00,24.9,23.9,00.0,33.9,26.7,08.9,0000.0,0009.25,0002.48,0001.20
2022-04-18 09:14:00,,0833.9,5.00,0.00,24.9,23.9,00.0,33.9,26.7,08.9,0000.0,0009.11,0002.50,0001.21
2022-04-18 09:15:00,,0833.9,4.98,0.00,24.9,23.9,00.0,33.8,26.7,08.9,0000.0,0008.92,0002.49,0001.20
2022-04-18 09:16:00,,0833.8,5.00,0.00,24.9,23.9,00.0,33.8,26.7,08.9,0000.0,0009.26,0002.54,0001.20
2022-04-18 09:17:00,,0833.8,5.00,0.00,24.9,23.9,00.0,33.8,26.7,08.9,0000.0,0009.00,0002.56,0001.20
2022-04-18 09:18:00,,0833.7,5.00,0.00,24.9,23.9,00.0,33.8,26.7,08.9,0000.0,0008.84,0002.57,0001.20
2022-04-18 09:19:00,,0833.8,5.00,0.00,24.9,23.9,00.0,33.8,26.7,08.9,0000.0,0008.68,0002.55,0001.20
2022-04-18 09:20:00,,0833.9,5.00,0.00,24.9,23.9,00.0,33.8,26.7,08.9,0000.0,0008.39,0002.46,0001.19
2022-04-18 09:21:00,,0833.9,5.00,0.00,24.9,23.9,00.0,33.8,26.7,08.9,0000.0,0008.14,0002.42,0001.20
2022-04-18 09:22:00,,0833.8,5.00,0.00,24.9,23.8,00.0,33.8,26.7,08.9,0000.0,0007.94,0002.41,0001.20
2022-04-18 09:23:00,,0833.8,5.00,0.00,24.8,23.8,00.0,33.8,26.7,08.9,0000.0,0007.99,0002.44,0001.19
2022-04-18 09:24:00,,0833.9,5.00,0.00,24.8,23.8,00.0,33.8,26.6,08.9,0000.0,0007.26,0002.47,0001.19
2022-04-18 09:25:00,,0833.9,5.00,0.00,24.8,23.8,00.0,33.8,26.6,09.0,0000.0,0008.06,0002.43,0001.18
2022-04-18 09:26:00,,0833.9,5.00,0.00,24.8,23.8,00.0,33.8,26.6,09.0,0000.0,0008.64,0002.45,0001.19
2022-04-18 09:27:00,,0833.9,5.00,0.00,24.8,23.8,00.0,33.8,26.6,09.0,0000.0,0008.55,0002.48,0001.20
2022-04-18 09:28:00,,0833.9,5.00,0.00,24.8,23.8,00.0,33.8,26.6,09.0,0000.0,0009.84,0002.50,0001.20
2022-04-18 09:29:00,,0834.0,5.01,0.00,24.8,23.8,00.0,33.8,26.6,09.0,0000.0,0010.41,0002.51,0001.20
2022-04-18 09:30:00,,0833.9,5.00,0.00,24.8,23.8,00.0,33.7,26.6,08.9,0000.0,0010.34,0002.50,0001.20
2022-04-18 09:31:00,,0833.8,5.00,0.00,24.8,23.8,00.0,33.8,26.6,08.9,0000.0,0010.34,0002.50,0001.21
2022-04-18 09:32:00,,0833.8,5.00,0.00,24.8,23.8,00.0,33.7,26.6,09.0,0000.0,0010.70,0002.50,0001.20
2022-04-18 09:33:00,,0833.8,5.00,0.00,24.8,23.8,00.0,33.7,26.6,09.0,0000.0,0011.31,0002.55,0001.19
2022-04-18 09:34:00,,0833.9,5.00,0.00,24.8,23.8,00.0,33.7,26.6,09.0,0000.0,0011.36,0002.56,0001.19
2022-04-18 09:35:00,,0833.9,5.00,0.00,24.8,23.7,00.0,33.7,26.6,08.9,0000.0,0011.26,0002.53,0001.19
2022-04-18 09:36:00,,0833.8,5.01,0.00,24.8,23.8,00.0,33.7,26.6,08.9,0000.0,0011.05,0002.51,0001.18
2022-04-18 09:37:00,,0833.8,5.01,0.00,24.8,23.7,00.0,33.7,26.6,08.9,0000.0,0010.51,0002.49,0001.17
2022-04-18 09:38:00,,0833.9,5.00,0.00,24.8,23.7,00.0,33.7,26.6,08.9,0000.0,0010.46,0002.43,0001.16
2022-04-18 09:39:00,,0834.0,5.00,0.00,24.8,23.7,00.0,33.7,26.6,08.9,0000.0,0009.84,0002.46,0001.15
2022-04-18 09:40:00,,0834.0,5.00,0.00,24.8,23.7,00.0,33.7,26.6,08.9,0000.0,0008.64,0002.56,0001.15
2022-04-18 09:41:00,,0834.0,4.99,0.00,24.7,23.7,00.0,33.7,26.6,08.9,0000.0,0009.02,0002.56,0001.12
2022-04-18 09:42:00,,0833.8,5.01,0.00,24.7,23.7,00.0,33.7,26.6,08.9,0000.0,0009.67,0002.63,0001.10
2022-04-18 09:43:00,,0833.8,4.99,0.00,24.7,23.7,00.0,33.7,26.5,08.9,0000.0,0010.18,0002.64,0001.10
2022-04-18 09:44:00,,0833.7,5.00,0.00,24.7,23.7,00.0,33.7,26.5,08.9,0000.0,0009.24,0002.57,0001.10
2022-04-18 09:45:00,,0833.8,5.00,0.00,24.7,23.7,00.0,33.7,26.5,08.9,0000.0,0009.04,0002.52,0001.10
2022-04-18 09:46:00,,0833.8,5.00,0.00,24.7,23.7,00.0,33.7,26.5,08.9,0000.0,0009.09,0002.51,0001.10
2022-04-18 09:47:00,,0833.8,5.01,0.00,24.7,23.7,00.0,33.7,26.5,08.9,0000.0,0009.20,0002.56,0001.10
2022-04-18 09:48:00,,0833.8,5.00,0.00,24.7,23.7,00.0,33.7,26.5,08.9,0000.0,0009.30,0002.58,0001.09
2022-04-18 09:49:00,,0833.8,5.01,0.00,24.7,23.7,00.0,33.7,26.5,08.9,0000.0,0009.80,0002.63,0001.09
2022-04-18 09:50:00,,0833.8,5.00,0.00,24.7,23.7,00.0,33.6,26.5,08.9,0000.0,0010.06,0002.65,0001.09
2022-04-18 09:51:00,,0833.8,5.00,0.00,24.7,23.7,00.0,33.6,26.5,08.9,0000.0,0009.81,0002.57,0001.09
2022-04-18 09:52:00,,0833.7,5.00,0.00,24.7,23.7,00.0,33.6,26.5,08.9,0000.0,0009.70,0002.62,0001.09
2022-04-18 09:53:00,,0833.7,5.00,0.00,24.7,23.6,00.0,33.6,26.5,08.9,0000.0,0009.79,0002.67,0001.10
2022-04-18 09:54:00,,0833.7,5.01,0.00,24.7,23.7,00.0,33.6,26.5,08.9,0000.0,0009.61,0002.72,0001.09
2022-04-18 09:55:00,,0833.7,5.01,0.00,24.7,23.7,00.0,33.6,26.5,08.9,0000.0,0009.86,0002.75,0001.10
2022-04-18 09:56:00,,0833.6,5.00,0.00,24.7,23.7,00.0,33.6,26.5,08.9,0000.0,0010.06,0002.83,0001.11
2022-04-18 09:57:00,,0833.6,5.00,0.00,24.7,23.6,00.0,33.6,26.5,08.9,0000.0,0010.13,0002.85,0001.11
2022-04-18 09:58:00,,0833.7,5.00,0.00,24.7,23.6,00.0,33.6,26.4,08.9,0000.0,0009.76,0002.84,0001.12
2022-04-18 09:59:00,,0833.7,4.99,0.00,24.7,23.6,00.0,33.6,26.5,08.9,0000.0,0009.47,0002.95,0001.13
